| time (UTC) | temp F | wind direction | speed MPH | gust MPH | rain 1hr in | rain 24hr in | rain mn in | humidity % | barometer mb |
| 20260905064948 | 67 | 44 | 5.0 | 7.0 | 0.00 | 0.00 | 0.00 | 59 | 1014.2 |
| 20260905064447 | 67 | 59 | 5.0 | 8.0 | 0.00 | 0.00 | 0.00 | 62 | 1014.1 |
| 20260905063947 | 67 | 30 | 5.0 | 8.0 | 0.00 | 0.00 | 0.00 | 58 | 1014.2 |
| 20260905063448 | 67 | 53 | 5.0 | 7.0 | 0.00 | 0.00 | 0.00 | 68 | 1014.1 |
| 20260905062950 | 67 | 49 | 7.0 | 7.0 | 0.00 | 0.00 | 0.00 | 63 | 1014.1 |
| 20260905062946 | 67 | 49 | 6.0 | 7.0 | 0.00 | 0.00 | 0.00 | 64 | 1014.1 |
| 20260905061946 | 67 | 53 | 7.0 | 7.0 | 0.00 | 0.00 | 0.00 | 59 | 1014.2 |
| 20260905061446 | 67 | 55 | 6.0 | 7.0 | 0.00 | 0.00 | 0.00 | 60 | 1014.2 |
| 20260905060946 | 67 | 57 | 6.0 | 7.0 | 0.00 | 0.00 | 0.00 | 64 | 1014.2 |
| 20260905060446 | 67 | 40 | 6.0 | 8.0 | 0.00 | 0.00 | 0.00 | 59 | 1014.2 |
| 20260905055946 | 67 | 39 | 6.0 | 8.0 | 0.00 | 0.00 | 0.00 | 67 | 1014.2 |
| 20260905055444 | 67 | 37 | 6.0 | 8.0 | 0.00 | 0.00 | 0.00 | 68 | 1014.1 |
| 20260905054944 | 67 | 47 | 5.0 | 7.0 | 0.00 | 0.00 | 0.00 | 68 | 1014.2 |
| 20260905054444 | 67 | 44 | 4.0 | 6.0 | 0.00 | 0.00 | 0.00 | 66 | 1014.2 |
| 20260905053943 | 67 | 44 | 3.0 | 6.0 | 0.00 | 0.00 | 0.00 | 66 | 1014.2 |
| 20260905053444 | 67 | 55 | 3.0 | 4.0 | 0.00 | 0.00 | 0.00 | 66 | 1014.2 |
| 20260905052944 | 68 | 55 | 3.0 | 4.0 | 0.00 | 0.00 | 0.00 | 66 | 1014.2 |
| 20260905052444 | 68 | 56 | 3.0 | 4.0 | 0.00 | 0.00 | 0.00 | 65 | 1014.3 |
| 20260905051949 | 68 | 41 | 3.0 | 5.0 | 0.00 | 0.00 | 0.00 | 64 | 1014.3 |
| 20260905051944 | 68 | 55 | 3.0 | 5.0 | 0.00 | 0.00 | 0.00 | 65 | 1014.3 |
| 20260905050943 | 68 | 41 | 3.0 | 6.0 | 0.00 | 0.00 | 0.00 | 61 | 1014.3 |
| 20260905050553 | 68 | 9 | 4.0 | 8.0 | 0.00 | 0.00 | 0.00 | 63 | 1014.2 |
| 20260905050447 | 68 | 13 | 4.0 | 7.0 | 0.00 | 0.00 | 0.00 | 62 | 1014.3 |
| 20260905050441 | 68 | 31 | 4.0 | 6.0 | 0.00 | 0.00 | 0.00 | 62 | 1014.3 |
| 20260905050159 | 68 | 10 | 4.0 | 8.0 | 0.00 | 0.00 | 0.00 | 66 | 1014.2 |
| 20260905044442 | 68 | 11 | 5.0 | 8.0 | 0.00 | 0.00 | 0.00 | 67 | 1014.1 |
| 20260905043942 | 68 | 10 | 6.0 | 8.0 | 0.00 | 0.00 | 0.00 | 68 | 1014.1 |
| 20260905043442 | 68 | 9 | 6.0 | 8.0 | 0.00 | 0.00 | 0.00 | 69 | 1014.0 |
| 20260905042942 | 68 | 9 | 5.0 | 8.0 | 0.00 | 0.00 | 0.00 | 70 | 1014.0 |
| 20260905042442 | 67 | 355 | 3.0 | 8.0 | 0.00 | 0.00 | 0.00 | 71 | 1013.9 |
| 20260905041942 | 67 | 355 | 2.0 | 4.0 | 0.00 | 0.00 | 0.00 | 71 | 1013.9 |
| 20260905041442 | 67 | 5 | 3.0 | 6.0 | 0.00 | 0.00 | 0.00 | 71 | 1014.0 |
| 20260905040946 | 68 | 5 | 6.0 | 8.0 | 0.00 | 0.00 | 0.00 | 71 | 1013.8 |
| 20260905040942 | 68 | 5 | 5.0 | 8.0 | 0.00 | 0.00 | 0.00 | 72 | 1013.9 |
| 20260905035946 | 68 | 0 | 6.0 | 8.0 | 0.00 | 0.00 | 0.00 | 71 | 1013.7 |
| 20260905035942 | 68 | 355 | 6.0 | 8.0 | 0.00 | 0.00 | 0.00 | 71 | 1013.8 |
| 20260905034942 | 68 | 0 | 5.0 | 8.0 | 0.00 | 0.00 | 0.00 | 70 | 1013.7 |
| 20260905034442 | 68 | 355 | 5.0 | 8.0 | 0.00 | 0.00 | 0.00 | 70 | 1013.7 |
| 20260905033943 | 68 | 336 | 6.0 | 8.0 | 0.00 | 0.00 | 0.00 | 69 | 1013.6 |
| 20260905033440 | 68 | 349 | 6.0 | 8.0 | 0.00 | 0.00 | 0.00 | 67 | 1013.5 |
| 20260905032940 | 69 | 355 | 5.0 | 8.0 | 0.00 | 0.00 | 0.00 | 67 | 1013.5 |
| 20260905032440 | 69 | 355 | 5.0 | 9.0 | 0.00 | 0.00 | 0.00 | 66 | 1013.4 |
| 20260905031939 | 69 | 5 | 6.0 | 9.0 | 0.00 | 0.00 | 0.00 | 64 | 1013.5 |
| 20260905031437 | 69 | 5 | 7.0 | 9.0 | 0.00 | 0.00 | 0.00 | 66 | 1013.2 |
| 20260905030945 | 68 | 346 | 5.0 | 9.0 | 0.00 | 0.00 | 0.00 | 67 | 1013.1 |
| 20260905030939 | 68 | 355 | 7.0 | 9.0 | 0.00 | 0.00 | 0.00 | 68 | 1013.2 |
| 20260905025936 | 68 | 344 | 4.0 | 6.0 | 0.00 | 0.00 | 0.00 | 67 | 1013.1 |
| 20260905025433 | 68 | 348 | 4.0 | 5.0 | 0.00 | 0.00 | 0.00 | 67 | 1013.1 |
| 20260905024933 | 68 | 334 | 4.0 | 7.0 | 0.00 | 0.00 | 0.00 | 68 | 1013.2 |
| 20260905024434 | 68 | 326 | 3.0 | 7.0 | 0.00 | 0.00 | 0.00 | 68 | 1013.1 |
| 20260905023933 | 68 | 335 | 3.0 | 5.0 | 0.00 | 0.00 | 0.00 | 69 | 1013.2 |
| 20260905023433 | 68 | 314 | 2.0 | 4.0 | 0.00 | 0.00 | 0.00 | 68 | 1013.1 |
| 20260905022934 | 69 | 317 | 1.0 | 3.0 | 0.00 | 0.00 | 0.00 | 65 | 1013.1 |
| 20260905022437 | 69 | 284 | 0.0 | 1.0 | 0.00 | 0.00 | 0.00 | 63 | 1013.2 |
| 20260905022433 | 69 | 286 | 0.0 | 2.0 | 0.00 | 0.00 | 0.00 | 65 | 1013.2 |
| 20260905021434 | 70 | 284 | 0.0 | 2.0 | 0.00 | 0.00 | 0.00 | 62 | 1013.2 |
| 20260905020933 | 70 | 284 | 3.0 | 7.0 | 0.00 | 0.00 | 0.00 | 62 | 1013.4 |
| 20260905020434 | 70 | 283 | 5.0 | 8.0 | 0.00 | 0.00 | 0.00 | 63 | 1013.4 |
| 20260905015933 | 70 | 277 | 4.0 | 8.0 | 0.00 | 0.00 | 0.00 | 62 | 1013.4 |
| 20260905015433 | 71 | 274 | 1.0 | 6.0 | 0.00 | 0.00 | 0.00 | 62 | 1013.4 |
| 20260905014933 | 71 | 293 | 0.0 | 3.0 | 0.00 | 0.00 | 0.00 | 62 | 1013.4 |
| 20260905014433 | 72 | 301 | 1.0 | 3.0 | 0.00 | 0.00 | 0.00 | 62 | 1013.6 |
| 20260905013934 | 72 | 97 | 0.0 | 3.0 | 0.00 | 0.00 | 0.00 | 64 | 1013.5 |
| 20260905013434 | 73 | 315 | 1.0 | 3.0 | 0.00 | 0.00 | 0.00 | 55 | 1013.4 |
| 20260905012933 | 72 | 344 | 1.0 | 3.0 | 0.00 | 0.00 | 0.00 | 55 | 1013.5 |
| 20260905012433 | 73 | 209 | 1.0 | 5.0 | 0.00 | 0.00 | 0.00 | 62 | 1013.5 |
| 20260905011935 | 73 | 178 | 1.0 | 5.0 | 0.00 | 0.00 | 0.00 | 65 | 1013.5 |
| 20260905011433 | 72 | 259 | 1.0 | 4.0 | 0.00 | 0.00 | 0.00 | 40 | 1013.6 |
| 20260905010933 | 71 | 259 | 2.0 | 4.0 | 0.00 | 0.00 | 0.00 | 41 | 1013.7 |
| 20260905010433 | 71 | 250 | 3.0 | 5.0 | 0.00 | 0.00 | 0.00 | 56 | 1013.6 |
| 20260905005938 | 73 | 202 | 3.0 | 5.0 | 0.00 | 0.00 | 0.00 | 63 | 1013.7 |
| 20260905005934 | 72 | 201 | 3.0 | 5.0 | 0.00 | 0.00 | 0.00 | 60 | 1013.7 |
| 20260905005540 | 73 | 183 | 2.0 | 5.0 | 0.00 | 0.00 | 0.00 | 63 | 1013.6 |
| 20260905004433 | 73 | 171 | 1.0 | 6.0 | 0.00 | 0.00 | 0.00 | 55 | 1013.6 |
| 20260905003933 | 73 | 152 | 1.0 | 6.0 | 0.00 | 0.00 | 0.00 | 43 | 1013.6 |
| 20260905003434 | 73 | 184 | 2.0 | 6.0 | 0.00 | 0.00 | 0.00 | 55 | 1013.6 |
| 20260905002937 | 72 | 227 | 2.0 | 8.0 | 0.00 | 0.00 | 0.00 | 49 | 1013.6 |
| 20260905002933 | 73 | 219 | 2.0 | 6.0 | 0.00 | 0.00 | 0.00 | 49 | 1013.6 |
| 20260905001933 | 71 | 219 | 3.0 | 8.0 | 0.00 | 0.00 | 0.00 | 58 | 1013.7 |
| 20260905001434 | 71 | 211 | 4.0 | 8.0 | 0.00 | 0.00 | 0.00 | 57 | 1013.6 |
| 20260905000933 | 72 | 199 | 5.0 | 8.0 | 0.00 | 0.00 | 0.00 | 70 | 1013.7 |
| 20260905000433 | 73 | 202 | 4.0 | 7.0 | 0.00 | 0.00 | 0.00 | 65 | 1013.7 |
| 20260904235933 | 73 | 153 | 3.0 | 6.0 | 0.00 | 0.00 | 0.00 | 43 | 1013.7 |
| 20260904235433 | 72 | 155 | 2.0 | 5.0 | 0.00 | 0.00 | 0.00 | 34 | 1013.6 |
| 20260904234937 | 71 | 220 | 4.0 | 8.0 | 0.00 | 0.00 | 0.00 | 65 | 1013.7 |
| 20260904234931 | 72 | 140 | 2.0 | 7.0 | 0.00 | 0.00 | 0.00 | 51 | 1013.6 |
| 20260904233931 | 71 | 171 | 4.0 | 8.0 | 0.00 | 0.00 | 0.00 | 70 | 1013.8 |
| 20260904233431 | 71 | 185 | 4.0 | 7.0 | 0.00 | 0.00 | 0.00 | 70 | 1013.8 |
| 20260904232931 | 70 | 148 | 4.0 | 8.0 | 0.00 | 0.00 | 0.00 | 59 | 1013.7 |
| 20260904232431 | 70 | 231 | 5.0 | 9.0 | 0.00 | 0.00 | 0.00 | 66 | 1013.7 |
| 20260904231929 | 70 | 190 | 6.0 | 11.0 | 0.00 | 0.00 | 0.00 | 71 | 1013.7 |
| 20260904231429 | 70 | 158 | 7.0 | 12.0 | 0.00 | 0.00 | 0.00 | 67 | 1013.7 |
| 20260904230929 | 71 | 171 | 6.0 | 12.0 | 0.00 | 0.00 | 0.00 | 64 | 1013.7 |
| 20260904230434 | 69 | 163 | 6.0 | 10.0 | 0.00 | 0.00 | 0.00 | 64 | 1013.8 |
| 20260904230429 | 71 | 173 | 6.0 | 10.0 | 0.00 | 0.00 | 0.00 | 68 | 1013.7 |
| 20260904225428 | 69 | 162 | 6.0 | 10.0 | 0.00 | 0.00 | 0.00 | 65 | 1013.8 |
| 20260904224929 | 69 | 171 | 7.0 | 10.0 | 0.00 | 0.00 | 0.00 | 65 | 1013.8 |
| 20260904224429 | 69 | 164 | 7.0 | 10.0 | 0.00 | 0.00 | 0.00 | 74 | 1013.9 |
| 20260904223929 | 69 | 161 | 7.0 | 12.0 | 0.00 | 0.00 | 0.00 | 69 | 1013.9 |
| 20260904223428 | 69 | 179 | 8.0 | 12.0 | 0.00 | 0.00 | 0.00 | 68 | 1013.9 |
| 20260904222931 | 69 | 163 | 7.0 | 12.0 | 0.00 | 0.00 | 0.00 | 64 | 1013.9 |
| 20260904222927 | 69 | 178 | 8.0 | 11.0 | 0.00 | 0.00 | 0.00 | 72 | 1013.9 |
| 20260904221926 | 68 | 157 | 8.0 | 12.0 | 0.00 | 0.00 | 0.00 | 63 | 1013.9 |
| 20260904221427 | 68 | 161 | 8.0 | 12.0 | 0.00 | 0.00 | 0.00 | 69 | 1013.9 |
| 20260904220927 | 68 | 158 | 8.0 | 12.0 | 0.00 | 0.00 | 0.00 | 66 | 1013.9 |
| 20260904220426 | 68 | 163 | 9.0 | 14.0 | 0.00 | 0.00 | 0.00 | 76 | 1013.8 |
| 20260904215927 | 69 | 155 | 9.0 | 15.0 | 0.00 | 0.00 | 0.00 | 78 | 1013.9 |
| 20260904215431 | 69 | 189 | 7.0 | 13.0 | 0.00 | 0.00 | 0.00 | 77 | 1013.9 |
| 20260904215427 | 70 | 159 | 8.0 | 15.0 | 0.00 | 0.00 | 0.00 | 76 | 1013.9 |
| 20260904214427 | 69 | 189 | 7.0 | 11.0 | 0.00 | 0.00 | 0.00 | 74 | 1014.1 |
| 20260904213927 | 68 | 141 | 7.0 | 12.0 | 0.00 | 0.00 | 0.00 | 74 | 1014.1 |
| 20260904213426 | 68 | 175 | 7.0 | 12.0 | 0.00 | 0.00 | 0.00 | 76 | 1014.0 |
| 20260904212927 | 68 | 145 | 8.0 | 13.0 | 0.00 | 0.00 | 0.00 | 77 | 1014.0 |
| 20260904212427 | 67 | 144 | 8.0 | 13.0 | 0.00 | 0.00 | 0.00 | 77 | 1014.1 |
| 20260904211926 | 67 | 151 | 7.0 | 12.0 | 0.00 | 0.00 | 0.00 | 78 | 1014.0 |
| 20260904211427 | 67 | 185 | 7.0 | 13.0 | 0.00 | 0.00 | 0.00 | 79 | 1014.1 |
| 20260904210929 | 69 | 182 | 8.0 | 12.0 | 0.00 | 0.00 | 0.00 | 75 | 1014.0 |
| 20260904210925 | 68 | 166 | 8.0 | 13.0 | 0.00 | 0.00 | 0.00 | 76 | 1014.2 |
| 20260904205924 | 70 | 163 | 7.0 | 12.0 | 0.00 | 0.00 | 0.00 | 75 | 1014.0 |
| 20260904205424 | 70 | 132 | 7.0 | 11.0 | 0.00 | 0.00 | 0.00 | 75 | 1014.0 |
| 20260904204925 | 70 | 157 | 7.0 | 11.0 | 0.00 | 0.00 | 0.00 | 74 | 1013.9 |
| 20260904204425 | 70 | 142 | 5.0 | 9.0 | 0.00 | 0.00 | 0.00 | 72 | 1014.0 |
| 20260904203925 | 70 | 151 | 5.0 | 9.0 | 0.00 | 0.00 | 0.00 | 72 | 1013.9 |
| 20260904203423 | 70 | 136 | 5.0 | 9.0 | 0.00 | 0.00 | 0.00 | 73 | 1014.0 |
| 20260904202923 | 70 | 183 | 6.0 | 10.0 | 0.00 | 0.00 | 0.00 | 73 | 1014.1 |
| 20260904202423 | 70 | 143 | 7.0 | 10.0 | 0.00 | 0.00 | 0.00 | 72 | 1014.1 |
| 20260904201923 | 70 | 144 | 6.0 | 10.0 | 0.00 | 0.00 | 0.00 | 73 | 1014.1 |
| 20260904201427 | 69 | 171 | 6.0 | 10.0 | 0.00 | 0.00 | 0.00 | 74 | 1014.2 |
| 20260904201423 | 70 | 136 | 5.0 | 10.0 | 0.00 | 0.00 | 0.00 | 72 | 1014.2 |
| 20260904200427 | 69 | 138 | 5.0 | 9.0 | 0.00 | 0.00 | 0.00 | 74 | 1014.1 |
| 20260904200423 | 68 | 134 | 6.0 | 9.0 | 0.00 | 0.00 | 0.00 | 73 | 1014.2 |
| 20260904195423 | 68 | 154 | 5.0 | 10.0 | 0.00 | 0.00 | 0.00 | 75 | 1014.3 |
| 20260904194922 | 68 | 126 | 6.0 | 12.0 | 0.00 | 0.00 | 0.00 | 75 | 1014.3 |
| 20260904194422 | 67 | 119 | 6.0 | 12.0 | 0.00 | 0.00 | 0.00 | 76 | 1014.4 |
| 20260904193923 | 67 | 165 | 7.0 | 10.0 | 0.00 | 0.00 | 0.00 | 76 | 1014.4 |
| 20260904193423 | 68 | 172 | 6.0 | 12.0 | 0.00 | 0.00 | 0.00 | 75 | 1014.5 |
| 20260904192927 | 68 | 158 | 6.0 | 10.0 | 0.00 | 0.00 | 0.00 | 75 | 1014.5 |
| 20260904192923 | 68 | 169 | 5.0 | 12.0 | 0.00 | 0.00 | 0.00 | 75 | 1014.5 |
| 20260904191922 | 68 | 122 | 6.0 | 10.0 | 0.00 | 0.00 | 0.00 | 74 | 1014.5 |
| 20260904191422 | 68 | 169 | 5.0 | 10.0 | 0.00 | 0.00 | 0.00 | 74 | 1014.5 |
| 20260904190927 | 68 | 142 | 6.0 | 11.0 | 0.00 | 0.00 | 0.00 | 75 | 1014.6 |
| 20260904190922 | 68 | 161 | 6.0 | 10.0 | 0.00 | 0.00 | 0.00 | 75 | 1014.6 |
| 20260904185922 | 68 | 168 | 6.0 | 11.0 | 0.00 | 0.00 | 0.00 | 75 | 1014.8 |
| 20260904185422 | 68 | 183 | 4.0 | 10.0 | 0.00 | 0.00 | 0.00 | 76 | 1014.6 |
| 20260904184926 | 68 | 95 | 5.0 | 9.0 | 0.00 | 0.00 | 0.00 | 76 | 1014.8 |
| 20260904184923 | 69 | 154 | 4.0 | 9.0 | 0.00 | 0.00 | 0.00 | 76 | 1014.8 |
| 20260904183922 | 68 | 136 | 3.0 | 7.0 | 0.00 | 0.00 | 0.00 | 77 | 1014.9 |
| 20260904183426 | 67 | 118 | 5.0 | 10.0 | 0.00 | 0.00 | 0.00 | 76 | 1014.9 |
| 20260904183422 | 68 | 132 | 4.0 | 9.0 | 0.00 | 0.00 | 0.00 | 78 | 1014.9 |
| 20260904182423 | 67 | 82 | 5.0 | 10.0 | 0.00 | 0.00 | 0.00 | 77 | 1015.0 |
| 20260904181926 | 67 | 151 | 4.0 | 9.0 | 0.00 | 0.00 | 0.00 | 77 | 1014.9 |
| 20260904181922 | 67 | 192 | 4.0 | 10.0 | 0.00 | 0.00 | 0.00 | 76 | 1015.0 |
| 20260904180927 | 66 | 134 | 5.0 | 11.0 | 0.00 | 0.00 | 0.00 | 80 | 1014.9 |
| 20260904180922 | 66 | 101 | 4.0 | 9.0 | 0.00 | 0.00 | 0.00 | 78 | 1014.9 |
| 20260904175920 | 65 | 165 | 6.0 | 11.0 | 0.00 | 0.00 | 0.00 | 81 | 1014.9 |
| 20260904175420 | 65 | 165 | 7.0 | 11.0 | 0.00 | 0.00 | 0.00 | 81 | 1015.0 |
| 20260904174920 | 65 | 170 | 6.0 | 11.0 | 0.00 | 0.00 | 0.00 | 80 | 1015.0 |
| 20260904174420 | 66 | 178 | 5.0 | 10.0 | 0.00 | 0.00 | 0.00 | 79 | 1014.9 |
| 20260904173920 | 66 | 182 | 4.0 | 8.0 | 0.00 | 0.00 | 0.00 | 79 | 1014.9 |
| 20260904173421 | 66 | 176 | 4.0 | 8.0 | 0.00 | 0.00 | 0.00 | 80 | 1014.8 |
| 20260904172926 | 65 | 188 | 5.0 | 9.0 | 0.00 | 0.00 | 0.00 | 81 | 1014.8 |
| 20260904172921 | 66 | 192 | 4.0 | 8.0 | 0.00 | 0.00 | 0.00 | 81 | 1014.8 |
| 20260904172527 | 65 | 140 | 6.0 | 10.0 | 0.00 | 0.00 | 0.00 | 82 | 1014.6 |
| 20260904172028 | 65 | 159 | 6.0 | 10.0 | 0.00 | 0.00 | 0.00 | 80 | 1014.5 |
| 20260904170920 | 65 | 176 | 4.0 | 8.0 | 0.00 | 0.00 | 0.00 | 83 | 1014.5 |
| 20260904170420 | 65 | 187 | 3.0 | 7.0 | 0.00 | 0.00 | 0.00 | 82 | 1014.4 |
| 20260904165920 | 64 | 154 | 3.0 | 7.0 | 0.00 | 0.00 | 0.00 | 85 | 1014.4 |
| 20260904165418 | 64 | 194 | 2.0 | 7.0 | 0.00 | 0.00 | 0.00 | 86 | 1014.4 |
| 20260904164918 | 63 | 115 | 2.0 | 7.0 | 0.00 | 0.00 | 0.00 | 89 | 1014.3 |
| 20260904164419 | 62 | 120 | 3.0 | 7.0 | 0.00 | 0.00 | 0.00 | 90 | 1014.3 |
| 20260904163925 | 61 | 69 | 4.0 | 10.0 | 0.00 | 0.00 | 0.00 | 95 | 1014.2 |
| 20260904163918 | 63 | 136 | 3.0 | 9.0 | 0.00 | 0.00 | 0.00 | 93 | 1014.3 |
| 20260904162916 | 61 | 141 | 5.0 | 10.0 | 0.00 | 0.00 | 0.00 | 95 | 1014.2 |
| 20260904162417 | 60 | 150 | 4.0 | 10.0 | 0.00 | 0.00 | 0.00 | 96 | 1014.2 |
| 20260904161917 | 60 | 148 | 1.0 | 8.0 | 0.00 | 0.00 | 0.00 | 97 | 1014.1 |
| 20260904161417 | 60 | 198 | 0.0 | 0.0 | 0.00 | 0.00 | 0.00 | 97 | 1014.1 |
| 20260904160915 | 60 | 118 | 0.0 | 0.0 | 0.00 | 0.00 | 0.00 | 97 | 1014.0 |
| 20260904160416 | 60 | 90 | 0.0 | 4.0 | 0.00 | 0.00 | 0.00 | 97 | 1014.0 |
| 20260904155916 | 59 | 132 | 0.0 | 4.0 | 0.00 | 0.00 | 0.00 | 97 | 1013.9 |
| 20260904155416 | 59 | 132 | 2.0 | 7.0 | 0.00 | 0.00 | 0.00 | 97 | 1013.9 |
| 20260904154914 | 59 | 107 | 3.0 | 9.0 | 0.00 | 0.00 | 0.00 | 97 | 1013.9 |
| 20260904154414 | 59 | 137 | 1.0 | 9.0 | 0.00 | 0.00 | 0.00 | 97 | 1013.9 |
| 20260904153914 | 58 | 115 | 0.0 | 0.0 | 0.00 | 0.00 | 0.00 | 97 | 1013.9 |
| 20260904153414 | 58 | 102 | 0.0 | 0.0 | 0.00 | 0.00 | 0.00 | 97 | 1013.9 |
| 20260904152914 | 58 | 103 | 0.0 | 0.0 | 0.00 | 0.00 | 0.00 | 97 | 1013.8 |
| 20260904152418 | 58 | 47 | 0.0 | 0.0 | 0.00 | 0.00 | 0.00 | 97 | 1013.8 |
| 20260904152414 | 58 | 102 | 0.0 | 0.0 | 0.00 | 0.00 | 0.00 | 97 | 1013.8 |
| 20260904151416 | 58 | 43 | 0.0 | 0.0 | 0.00 | 0.00 | 0.00 | 97 | 1013.8 |
| 20260904150911 | 58 | 55 | 0.0 | 0.0 | 0.00 | 0.00 | 0.00 | 97 | 1013.7 |
| 20260904150416 | 58 | 73 | 0.0 | 1.0 | 0.00 | 0.00 | 0.00 | 97 | 1013.8 |
| 20260904150411 | 58 | 67 | 0.0 | 1.0 | 0.00 | 0.00 | 0.00 | 97 | 1013.7 |
| 20260904145410 | 57 | 113 | 0.0 | 0.0 | 0.00 | 0.00 | 0.00 | 97 | 1013.7 |
| 20260904144910 | 57 | 95 | 0.0 | 0.0 | 0.00 | 0.00 | 0.00 | 97 | 1013.6 |
| 20260904144408 | 57 | 101 | 0.0 | 0.0 | 0.00 | 0.00 | 0.00 | 97 | 1013.6 |
| 20260904143908 | 58 | 101 | 0.0 | 0.0 | 0.00 | 0.00 | 0.00 | 97 | 1013.5 |
| 20260904143407 | 57 | 108 | 0.0 | 0.0 | 0.00 | 0.00 | 0.00 | 97 | 1013.5 |
| 20260904142906 | 57 | 126 | 0.0 | 0.0 | 0.00 | 0.00 | 0.00 | 97 | 1013.5 |
| 20260904142405 | 57 | 104 | 0.0 | 0.0 | 0.00 | 0.00 | 0.00 | 97 | 1013.5 |
| 20260904141905 | 57 | 108 | 0.0 | 0.0 | 0.00 | 0.00 | 0.00 | 97 | 1013.4 |
| 20260904141407 | 57 | 93 | 0.0 | 0.0 | 0.00 | 0.00 | 0.00 | 97 | 1013.2 |
| 20260904140907 | 57 | 58 | 0.0 | 0.0 | 0.00 | 0.00 | 0.00 | 97 | 1013.1 |
| 20260904140903 | 57 | 88 | 0.0 | 0.0 | 0.00 | 0.00 | 0.00 | 97 | 1013.2 |
| 20260904135908 | 57 | 32 | 0.0 | 0.0 | 0.00 | 0.00 | 0.00 | 97 | 1012.9 |
| 20260904135904 | 57 | 38 | 0.0 | 0.0 | 0.00 | 0.00 | 0.00 | 97 | 1013.0 |
| 20260904134907 | 57 | 34 | 2.0 | 5.0 | 0.00 | 0.00 | 0.00 | 97 | 1012.8 |
| 20260904134903 | 57 | 36 | 0.0 | 0.0 | 0.00 | 0.00 | 0.00 | 97 | 1012.9 |
| 20260904133859 | 57 | 40 | 3.0 | 6.0 | 0.00 | 0.00 | 0.00 | 97 | 1012.8 |
| 20260904133405 | 57 | 38 | 0.0 | 2.0 | 0.00 | 0.00 | 0.00 | 97 | 1012.8 |
| 20260904133359 | 57 | 51 | 1.0 | 6.0 | 0.00 | 0.00 | 0.00 | 97 | 1012.8 |
| 20260904132359 | 57 | 42 | 1.0 | 5.0 | 0.00 | 0.00 | 0.00 | 97 | 1012.8 |
| 20260904131900 | 57 | 76 | 3.0 | 6.0 | 0.00 | 0.00 | 0.00 | 97 | 1012.8 |
| 20260904131359 | 57 | 64 | 4.0 | 7.0 | 0.00 | 0.00 | 0.00 | 97 | 1012.9 |
| 20260904130900 | 57 | 76 | 3.0 | 7.0 | 0.00 | 0.00 | 0.00 | 97 | 1012.8 |
| 20260904130400 | 58 | 92 | 1.0 | 7.0 | 0.00 | 0.00 | 0.00 | 97 | 1012.9 |
| 20260904125900 | 58 | 101 | 0.0 | 4.0 | 0.00 | 0.00 | 0.00 | 97 | 1012.9 |
| 20260904125400 | 58 | 86 | 0.0 | 6.0 | 0.00 | 0.00 | 0.00 | 97 | 1012.7 |
| 20260904124900 | 57 | 86 | 2.0 | 6.0 | 0.00 | 0.00 | 0.00 | 97 | 1012.8 |
| 20260904124405 | 58 | 103 | 4.0 | 8.0 | 0.00 | 0.00 | 0.00 | 96 | 1012.7 |
| 20260904124400 | 58 | 76 | 3.0 | 7.0 | 0.00 | 0.00 | 0.00 | 97 | 1012.7 |
| 20260904123405 | 58 | 92 | 4.0 | 8.0 | 0.00 | 0.00 | 0.00 | 96 | 1012.6 |
| 20260904123359 | 58 | 97 | 4.0 | 8.0 | 0.00 | 0.00 | 0.00 | 96 | 1012.7 |
| 20260904122403 | 58 | 106 | 4.0 | 7.0 | 0.00 | 0.00 | 0.00 | 96 | 1012.6 |
| 20260904122357 | 58 | 113 | 4.0 | 7.0 | 0.00 | 0.00 | 0.00 | 96 | 1012.6 |
| 20260904121357 | 58 | 88 | 4.0 | 7.0 | 0.00 | 0.00 | 0.00 | 96 | 1012.6 |
| 20260904120857 | 58 | 93 | 4.0 | 10.0 | 0.00 | 0.00 | 0.00 | 96 | 1012.5 |
| 20260904120357 | 58 | 125 | 5.0 | 10.0 | 0.00 | 0.00 | 0.00 | 96 | 1012.6 |
| 20260904115858 | 58 | 96 | 6.0 | 10.0 | 0.00 | 0.00 | 0.00 | 96 | 1012.5 |
| 20260904115358 | 58 | 102 | 7.0 | 10.0 | 0.00 | 0.00 | 0.00 | 96 | 1012.6 |
| 20260904114857 | 58 | 112 | 7.0 | 11.0 | 0.00 | 0.00 | 0.00 | 96 | 1012.6 |
| 20260904114357 | 58 | 105 | 7.0 | 11.0 | 0.00 | 0.00 | 0.00 | 96 | 1012.6 |
| 20260904113857 | 58 | 98 | 5.0 | 9.0 | 0.00 | 0.00 | 0.00 | 96 | 1012.6 |
| 20260904113357 | 58 | 109 | 5.0 | 10.0 | 0.00 | 0.00 | 0.00 | 96 | 1012.6 |
| 20260904112858 | 58 | 105 | 7.0 | 10.0 | 0.00 | 0.00 | 0.00 | 96 | 1012.6 |
| 20260904112356 | 58 | 110 | 6.0 | 9.0 | 0.00 | 0.00 | 0.00 | 96 | 1012.5 |
| 20260904111855 | 58 | 102 | 7.0 | 10.0 | 0.00 | 0.00 | 0.00 | 96 | 1012.6 |
| 20260904111355 | 58 | 98 | 8.0 | 10.0 | 0.00 | 0.00 | 0.00 | 95 | 1012.6 |
| 20260904110855 | 58 | 110 | 8.0 | 11.0 | 0.00 | 0.00 | 0.00 | 95 | 1012.7 |
| 20260904110356 | 58 | 103 | 8.0 | 11.0 | 0.00 | 0.00 | 0.00 | 95 | 1012.7 |
| 20260904105859 | 58 | 105 | 9.0 | 12.0 | 0.00 | 0.00 | 0.00 | 95 | 1012.6 |
| 20260904105855 | 58 | 118 | 9.0 | 12.0 | 0.00 | 0.00 | 0.00 | 95 | 1012.7 |
| 20260904104855 | 58 | 111 | 8.0 | 12.0 | 0.00 | 0.00 | 0.00 | 95 | 1012.7 |
| 20260904104353 | 58 | 97 | 9.0 | 12.0 | 0.00 | 0.00 | 0.00 | 95 | 1012.6 |
| 20260904103851 | 58 | 109 | 9.0 | 12.0 | 0.00 | 0.00 | 0.00 | 95 | 1012.6 |
| 20260904103351 | 59 | 107 | 8.0 | 12.0 | 0.00 | 0.00 | 0.00 | 94 | 1012.6 |
| 20260904102850 | 59 | 94 | 8.0 | 13.0 | 0.00 | 0.00 | 0.00 | 94 | 1012.6 |
| 20260904102351 | 59 | 105 | 9.0 | 13.0 | 0.00 | 0.00 | 0.00 | 94 | 1012.6 |
| 20260904101851 | 59 | 101 | 10.0 | 13.0 | 0.00 | 0.00 | 0.00 | 94 | 1012.5 |
| 20260904101351 | 59 | 98 | 10.0 | 13.0 | 0.00 | 0.00 | 0.00 | 93 | 1012.5 |
| 20260904100856 | 59 | 84 | 9.0 | 13.0 | 0.00 | 0.00 | 0.00 | 93 | 1012.5 |
| 20260904100851 | 59 | 86 | 9.0 | 13.0 | 0.00 | 0.00 | 0.00 | 93 | 1012.5 |
| 20260904095851 | 59 | 99 | 10.0 | 13.0 | 0.00 | 0.00 | 0.00 | 92 | 1012.6 |
| 20260904095351 | 59 | 90 | 9.0 | 12.0 | 0.00 | 0.00 | 0.00 | 91 | 1012.5 |
| 20260904094851 | 60 | 90 | 9.0 | 11.0 | 0.00 | 0.00 | 0.00 | 91 | 1012.6 |
| 20260904094351 | 60 | 90 | 10.0 | 11.0 | 0.00 | 0.00 | 0.00 | 90 | 1012.6 |
| 20260904093848 | 60 | 83 | 9.0 | 11.0 | 0.00 | 0.00 | 0.00 | 90 | 1012.6 |
| 20260904093350 | 60 | 86 | 8.0 | 10.0 | 0.00 | 0.00 | 0.00 | 89 | 1012.6 |
| 20260904092849 | 60 | 74 | 7.0 | 9.0 | 0.00 | 0.00 | 0.00 | 89 | 1012.5 |
| 20260904092354 | 60 | 87 | 6.0 | 9.0 | 0.00 | 0.00 | 0.00 | 88 | 1012.5 |
| 20260904092350 | 60 | 88 | 7.0 | 9.0 | 0.00 | 0.00 | 0.00 | 88 | 1012.5 |
| 20260904091349 | 60 | 84 | 5.0 | 8.0 | 0.00 | 0.00 | 0.00 | 88 | 1012.5 |
| 20260904090848 | 60 | 86 | 6.0 | 9.0 | 0.00 | 0.00 | 0.00 | 87 | 1012.6 |
| 20260904090348 | 60 | 84 | 7.0 | 9.0 | 0.00 | 0.00 | 0.00 | 87 | 1012.5 |
| 20260904085852 | 61 | 79 | 6.0 | 9.0 | 0.00 | 0.00 | 0.00 | 87 | 1012.5 |
| 20260904085848 | 61 | 68 | 7.0 | 9.0 | 0.00 | 0.00 | 0.00 | 86 | 1012.7 |
| 20260904085459 | 61 | 86 | 6.0 | 8.0 | 0.00 | 0.00 | 0.00 | 85 | 1012.7 |
| 20260904085452 | 61 | 78 | 6.0 | 9.0 | 0.00 | 0.00 | 0.00 | 86 | 1012.6 |
| 20260904083847 | 62 | 91 | 6.0 | 10.0 | 0.00 | 0.00 | 0.00 | 84 | 1012.7 |
| 20260904083347 | 62 | 98 | 7.0 | 10.0 | 0.00 | 0.00 | 0.00 | 82 | 1012.7 |
| 20260904082846 | 62 | 91 | 7.0 | 10.0 | 0.00 | 0.00 | 0.00 | 78 | 1012.7 |
| 20260904082346 | 61 | 88 | 8.0 | 10.0 | 0.00 | 0.00 | 0.00 | 77 | 1012.8 |
| 20260904081847 | 61 | 86 | 9.0 | 11.0 | 0.00 | 0.00 | 0.00 | 75 | 1012.7 |
| 20260904081346 | 61 | 86 | 9.0 | 11.0 | 0.00 | 0.00 | 0.00 | 78 | 1012.8 |
| 20260904080847 | 61 | 90 | 9.0 | 11.0 | 0.00 | 0.00 | 0.00 | 80 | 1012.9 |
| 20260904080345 | 61 | 90 | 9.0 | 11.0 | 0.00 | 0.00 | 0.00 | 80 | 1012.9 |
| 20260904075849 | 62 | 92 | 9.0 | 11.0 | 0.00 | 0.00 | 0.00 | 75 | 1013.0 |
| 20260904075845 | 62 | 98 | 9.0 | 11.0 | 0.00 | 0.00 | 0.00 | 78 | 1012.9 |
| 20260904074848 | 62 | 100 | 8.0 | 10.0 | 0.00 | 0.00 | 0.00 | 70 | 1013.1 |
| 20260904074844 | 62 | 101 | 8.0 | 10.0 | 0.00 | 0.00 | 0.00 | 70 | 1013.1 |
| 20260904073844 | 62 | 97 | 8.0 | 10.0 | 0.00 | 0.00 | 0.00 | 66 | 1013.0 |
| 20260904073344 | 62 | 98 | 8.0 | 10.0 | 0.00 | 0.00 | 0.00 | 66 | 1013.0 |
| 20260904072844 | 62 | 96 | 8.0 | 10.0 | 0.00 | 0.00 | 0.00 | 65 | 1013.0 |
| 20260904072344 | 63 | 98 | 8.0 | 10.0 | 0.00 | 0.00 | 0.00 | 66 | 1013.0 |
| 20260904071849 | 63 | 97 | 8.0 | 10.0 | 0.00 | 0.00 | 0.00 | 65 | 1012.9 |
| 20260904071844 | 63 | 96 | 8.0 | 10.0 | 0.00 | 0.00 | 0.00 | 65 | 1012.9 |
| 20260904070845 | 63 | 96 | 8.0 | 10.0 | 0.00 | 0.00 | 0.00 | 66 | 1012.9 |
| 20260904070348 | 64 | 96 | 8.0 | 10.0 | 0.00 | 0.00 | 0.00 | 54 | 1012.8 |
| 20260904070344 | 64 | 94 | 8.0 | 10.0 | 0.00 | 0.00 | 0.00 | 61 | 1012.8 |
| 20260904065349 | 64 | 103 | 7.0 | 10.0 | 0.00 | 0.00 | 0.00 | 58 | 1012.9 |
| 20260904065345 | 64 | 102 | 7.0 | 9.0 | 0.00 | 0.00 | 0.00 | 56 | 1012.9 |